﻿#観測日時,平均風速,平均風向,最大風速,最大風速発生風向,最大瞬間風速,最大瞬間風速発生風向
#(年月日),(m/s)   ,(16方位),(m/s)   ,(16方位)        ,(m/s)       ,(16方位)            
2019/9/28 0:01,0.9,3,1,2,2.1,4
2019/9/28 0:02,0.9,3,0.9,2,1,2
2019/9/28 0:03,0.9,2,0.9,2,1,2
2019/9/28 0:04,0.9,2,0.9,2,1.8,2
2019/9/28 0:05,0.9,2,0.9,2,1.4,3
2019/9/28 0:06,0.8,2,0.9,2,1.3,2
2019/9/28 0:07,0.8,2,0.8,2,1,1
2019/9/28 0:08,0.8,2,0.8,3,1.1,3
2019/9/28 0:09,0.9,2,0.9,3,1.6,3
2019/9/28 0:10,0.8,2,0.9,3,1,2
2019/9/28 0:11,0.8,2,0.8,3,1.1,3
2019/9/28 0:12,0.8,2,0.8,2,1.1,3
2019/9/28 0:13,0.8,2,0.8,2,1.1,1
2019/9/28 0:14,0.8,2,0.8,2,1.4,2
2019/9/28 0:15,0.8,2,0.8,2,2.1,3
2019/9/28 0:16,0.9,2,0.9,2,1.4,3
2019/9/28 0:17,0.9,2,0.9,2,1.3,2
2019/9/28 0:18,0.9,2,0.9,2,2.2,2
2019/9/28 0:19,1,2,1,2,2.2,2
2019/9/28 0:20,1.1,2,1.1,2,2.4,1
2019/9/28 0:21,1.2,2,1.2,2,2.2,1
2019/9/28 0:22,1.3,2,1.3,2,2.5,1
2019/9/28 0:23,1.4,2,1.4,2,2.4,2
2019/9/28 0:24,1.4,2,1.4,2,2,2
2019/9/28 0:25,1.4,2,1.4,2,1.8,2
2019/9/28 0:26,1.5,2,1.5,2,2,2
2019/9/28 0:27,1.6,2,1.6,2,2.2,2
2019/9/28 0:28,1.6,2,1.6,2,2.6,1
2019/9/28 0:29,1.6,2,1.7,2,2.9,3
2019/9/28 0:30,1.6,2,1.6,2,2.6,2
2019/9/28 0:31,1.6,2,1.6,2,2.2,3
2019/9/28 0:32,1.5,2,1.6,2,1.9,2
2019/9/28 0:33,1.5,2,1.5,2,2.2,3
2019/9/28 0:34,1.6,2,1.6,2,2.5,3
2019/9/28 0:35,1.6,2,1.6,2,2,3
2019/9/28 0:36,1.5,2,1.6,2,1.6,2
2019/9/28 0:37,1.4,2,1.5,2,1.6,2
2019/9/28 0:38,1.5,2,1.5,2,2.5,4
2019/9/28 0:39,1.4,2,1.5,2,2.1,3
2019/9/28 0:40,1.4,2,1.4,2,1.8,2
2019/9/28 0:41,1.3,2,1.4,2,2,3
2019/9/28 0:42,1.4,2,1.4,2,2.1,3
2019/9/28 0:43,1.3,2,1.3,2,1.8,2
2019/9/28 0:44,1.2,2,1.3,2,1.6,1
2019/9/28 0:45,1.2,2,1.2,2,2,2
2019/9/28 0:46,1.3,2,1.3,2,1.6,2
2019/9/28 0:47,1.3,2,1.3,2,2.2,2
2019/9/28 0:48,1.3,2,1.3,2,2.2,2
2019/9/28 0:49,1.3,2,1.3,2,2.2,3
2019/9/28 0:50,1.4,2,1.4,2,3,3
2019/9/28 0:51,1.5,2,1.5,2,2.9,3
2019/9/28 0:52,1.6,2,1.6,2,2.6,3
2019/9/28 0:53,1.6,2,1.6,2,2.4,3
2019/9/28 0:54,1.7,2,1.7,2,1.8,3
2019/9/28 0:55,1.7,2,1.7,2,2.1,2
2019/9/28 0:56,1.7,2,1.7,2,2,2
2019/9/28 0:57,1.7,2,1.7,2,2.1,2
2019/9/28 0:58,1.7,3,1.7,2,1.9,2
2019/9/28 0:59,1.7,3,1.7,2,2.7,3
2019/9/28 1:00,1.6,3,1.7,2,3,3
2019/9/28 1:01,1.5,2,1.6,2,1.8,3
2019/9/28 1:02,1.5,2,1.5,2,1.9,3
2019/9/28 1:03,1.4,2,1.5,2,0.9,1
2019/9/28 1:04,1.3,2,1.3,2,1.1,2
2019/9/28 1:05,1.3,2,1.3,2,2,3
2019/9/28 1:06,1.3,2,1.3,2,1.8,3
2019/9/28 1:07,1.2,2,1.2,2,1.6,3
2019/9/28 1:08,1.2,2,1.2,3,2,4
2019/9/28 1:09,1.2,2,1.2,3,1.9,3
2019/9/28 1:10,1.2,2,1.2,3,2.4,2
2019/9/28 1:11,1.2,2,1.2,2,2.2,3
2019/9/28 1:12,1.3,2,1.3,2,2.2,2
2019/9/28 1:13,1.4,2,1.4,2,2.4,4
2019/9/28 1:14,1.4,2,1.4,2,2.2,3
2019/9/28 1:15,1.4,2,1.4,2,2,4
2019/9/28 1:16,1.5,3,1.5,3,3.2,3
2019/9/28 1:17,1.7,3,1.7,3,3.1,3
2019/9/28 1:18,1.7,3,1.7,3,2.5,2
2019/9/28 1:19,1.7,3,1.7,3,2,3
2019/9/28 1:20,1.7,3,1.7,3,1.9,2
2019/9/28 1:21,1.7,2,1.7,3,2.4,3
2019/9/28 1:22,1.6,2,1.7,3,1.8,2
2019/9/28 1:23,1.6,2,1.6,3,1.5,1
2019/9/28 1:24,1.6,2,1.6,3,2.2,1
2019/9/28 1:25,1.6,2,1.6,3,1.9,1
2019/9/28 1:26,1.5,2,1.6,3,1.8,3
2019/9/28 1:27,1.4,2,1.5,3,1.9,2
2019/9/28 1:28,1.3,2,1.3,3,1.8,2
2019/9/28 1:29,1.3,2,1.3,3,2.1,3
2019/9/28 1:30,1.2,2,1.3,3,1.4,1
2019/9/28 1:31,1.2,2,1.2,2,1.8,2
2019/9/28 1:32,1.2,2,1.2,2,1.9,2
2019/9/28 1:33,1.2,2,1.2,2,1.3,3
2019/9/28 1:34,1.1,2,1.2,2,1.6,2
2019/9/28 1:35,1.1,2,1.1,2,1.4,2
2019/9/28 1:36,1.1,2,1.1,2,1.4,2
2019/9/28 1:37,1.1,2,1.1,2,2,3
2019/9/28 1:38,1.1,2,1.1,2,1.6,1
2019/9/28 1:39,1.1,2,1.1,2,2.1,1
2019/9/28 1:40,1.1,2,1.1,2,1.6,2
2019/9/28 1:41,1,2,1.1,2,1,1
2019/9/28 1:42,0.9,2,1,2,1.4,1
2019/9/28 1:43,1,2,1,2,1.5,2
2019/9/28 1:44,0.9,2,0.9,2,0.9,1
2019/9/28 1:45,0.9,2,0.9,2,1.3,2
2019/9/28 1:46,0.9,2,0.9,2,0.8,1
2019/9/28 1:47,0.8,2,0.9,2,1.1,3
2019/9/28 1:48,0.8,2,0.8,2,1,3
2019/9/28 1:49,0.7,2,0.8,2,0.5,15
2019/9/28 1:50,0.6,2,0.7,2,0.5,3
2019/9/28 1:51,0.6,2,0.6,2,0.4,4
2019/9/28 1:52,0.5,3,0.6,2,0.5,4
2019/9/28 1:53,0.5,3,0.5,2,0.9,4
2019/9/28 1:54,0.5,3,0.5,2,0.9,5
2019/9/28 1:55,0.6,3,0.6,2,1.6,3
2019/9/28 1:56,0.7,3,0.7,2,2,5
2019/9/28 1:57,0.7,4,0.7,2,2,3
2019/9/28 1:58,0.8,4,0.8,2,1.8,3
2019/9/28 1:59,0.9,4,0.9,4,1.5,4
2019/9/28 2:00,1,4,1,4,1.6,5
2019/9/28 2:01,1.1,4,1.1,4,1.5,4
2019/9/28 2:02,1.2,4,1.2,4,1.9,4
2019/9/28 2:03,1.2,4,1.2,4,2,4
2019/9/28 2:04,1.3,4,1.3,4,2.1,4
2019/9/28 2:05,1.3,4,1.4,4,1.6,3
2019/9/28 2:06,1.3,4,1.3,4,2.1,3
2019/9/28 2:07,1.3,4,1.3,4,1.9,4
2019/9/28 2:08,1.4,4,1.4,4,2.2,3
2019/9/28 2:09,1.5,4,1.5,4,2.2,3
2019/9/28 2:10,1.5,3,1.5,4,2.2,3
2019/9/28 2:11,1.6,3,1.6,3,2.5,3
2019/9/28 2:12,1.7,3,1.7,3,2.1,4
2019/9/28 2:13,1.7,3,1.7,3,2.5,4
2019/9/28 2:14,1.7,3,1.7,3,2.7,4
2019/9/28 2:15,1.8,3,1.8,3,2.7,3
2019/9/28 2:16,1.8,3,1.8,3,1.9,2
2019/9/28 2:17,1.8,3,1.8,3,1.9,2
2019/9/28 2:18,1.7,3,1.8,3,2.2,2
2019/9/28 2:19,1.6,3,1.7,3,1.5,3
2019/9/28 2:20,1.5,3,1.6,3,1.4,2
2019/9/28 2:21,1.5,3,1.5,3,3,4
2019/9/28 2:22,1.5,3,1.5,3,2.5,3
2019/9/28 2:23,1.6,3,1.6,3,2.9,3
2019/9/28 2:24,1.6,3,1.6,3,3.2,4
2019/9/28 2:25,1.5,3,1.6,3,2.2,5
2019/9/28 2:26,1.5,3,1.6,3,2.2,6
2019/9/28 2:27,1.6,3,1.6,3,2.4,3
2019/9/28 2:28,1.5,3,1.6,3,1.4,2
2019/9/28 2:29,1.5,3,1.5,3,1.4,2
2019/9/28 2:30,1.5,3,1.6,3,1.6,3
2019/9/28 2:31,1.5,3,1.5,3,2.2,2
2019/9/28 2:32,1.5,3,1.5,3,2,3
2019/9/28 2:33,1.4,3,1.4,3,1.4,2
2019/9/28 2:34,1.2,3,1.3,3,1.3,3
2019/9/28 2:35,1.2,2,1.2,3,1.3,1
2019/9/28 2:36,1.1,2,1.2,3,2.4,3
2019/9/28 2:37,1.2,2,1.2,3,3,4
2019/9/28 2:38,1.1,2,1.2,3,1.6,2
2019/9/28 2:39,1.2,2,1.2,3,2,3
2019/9/28 2:40,1.2,2,1.2,3,1.6,3
2019/9/28 2:41,1.1,2,1.2,3,1.8,1
2019/9/28 2:42,1.1,2,1.1,3,1.8,1
2019/9/28 2:43,1.2,2,1.2,3,2.1,2
2019/9/28 2:44,1.2,2,1.2,3,1.9,1
2019/9/28 2:45,1.3,2,1.3,2,2.1,1
2019/9/28 2:46,1.3,2,1.3,2,2.4,16
2019/9/28 2:47,1.3,2,1.3,2,2,2
2019/9/28 2:48,1.3,2,1.3,2,1.8,16
2019/9/28 2:49,1.3,1,1.3,2,2,2
2019/9/28 2:50,1.3,1,1.3,2,1.8,16
2019/9/28 2:51,1.4,1,1.4,1,2.6,1
2019/9/28 2:52,1.5,1,1.5,1,2.5,1
2019/9/28 2:53,1.5,1,1.5,1,3.5,2
2019/9/28 2:54,1.5,1,1.5,1,2.2,2
2019/9/28 2:55,1.5,1,1.5,1,2,3
2019/9/28 2:56,1.4,1,1.5,1,1.5,1
2019/9/28 2:57,1.4,1,1.4,1,1.9,15
2019/9/28 2:58,1.4,1,1.4,1,1.9,1
2019/9/28 2:59,1.3,1,1.4,1,2,16
2019/9/28 3:00,1.4,1,1.4,1,1.9,1
2019/9/28 3:01,1.3,1,1.3,1,1.8,16
2019/9/28 3:02,1.2,1,1.3,1,2.1,1
2019/9/28 3:03,1.1,1,1.2,1,1.3,2
2019/9/28 3:04,1.1,1,1.1,1,1.5,2
2019/9/28 3:05,1.1,1,1.1,1,1.8,2
2019/9/28 3:06,1.1,1,1.1,1,1.5,1
2019/9/28 3:07,1.1,1,1.1,1,1.1,16
2019/9/28 3:08,1.1,1,1.1,1,2.1,1
2019/9/28 3:09,1.1,1,1.2,1,1.8,1
2019/9/28 3:10,1.1,1,1.1,1,1.8,16
2019/9/28 3:11,1.2,16,1.2,1,2.1,16
2019/9/28 3:12,1.2,16,1.2,1,1.8,16
2019/9/28 3:13,1.2,16,1.2,1,1.6,16
2019/9/28 3:14,1.3,16,1.3,16,1.4,16
2019/9/28 3:15,1.3,16,1.3,16,1.5,15
2019/9/28 3:16,1.3,16,1.3,16,1.8,15
2019/9/28 3:17,1.3,16,1.3,16,1.5,15
2019/9/28 3:18,1.3,16,1.3,16,0.9,15
2019/9/28 3:19,1.2,15,1.2,16,0.8,16
2019/9/28 3:20,1.1,15,1.2,16,0.9,15
2019/9/28 3:21,1,15,1.1,16,0.9,15
2019/9/28 3:22,1,16,1,16,0.9,16
2019/9/28 3:23,0.9,16,0.9,16,0.6,16
2019/9/28 3:24,0.8,16,0.8,16,1.3,15
2019/9/28 3:25,0.8,16,0.8,16,1.4,15
2019/9/28 3:26,0.8,16,0.8,16,1.6,16
2019/9/28 3:27,0.8,16,0.8,16,1.6,16
2019/9/28 3:28,0.8,16,0.8,16,1.5,16
2019/9/28 3:29,0.9,16,0.9,15,1.4,16
2019/9/28 3:30,0.9,16,0.9,15,1.4,16
2019/9/28 3:31,0.8,16,0.9,15,0.4,15
2019/9/28 3:32,0.7,16,0.8,16,0.1,10
2019/9/28 3:33,0.7,15,0.7,16,0,10
2019/9/28 3:34,0.6,15,0.7,16,0.4,14
2019/9/28 3:35,0.6,15,0.6,16,1.3,15
2019/9/28 3:36,0.7,15,0.7,16,1.5,16
2019/9/28 3:37,0.7,15,0.7,16,1.5,16
2019/9/28 3:38,0.7,15,0.7,16,1.5,16
2019/9/28 3:39,0.6,15,0.7,16,1,16
2019/9/28 3:40,0.6,15,0.6,16,1.3,16
2019/9/28 3:41,0.7,15,0.7,16,1.1,16
2019/9/28 3:42,0.8,15,0.8,15,0.9,16
2019/9/28 3:43,0.8,16,0.8,15,1.3,1
2019/9/28 3:44,0.9,16,0.9,16,0.9,1
2019/9/28 3:45,0.9,16,0.9,16,0.9,1
2019/9/28 3:46,0.8,16,0.8,16,1.1,1
2019/9/28 3:47,0.8,16,0.8,16,1.9,1
2019/9/28 3:48,0.8,1,0.8,16,2,1
2019/9/28 3:49,0.8,1,0.9,16,1.1,2
2019/9/28 3:50,0.8,1,0.8,16,1,2
2019/9/28 3:51,0.8,1,0.8,16,1.1,4
2019/9/28 3:52,0.9,2,0.9,16,1.5,3
2019/9/28 3:53,0.9,2,0.9,16,1.8,1
2019/9/28 3:54,1,2,1,2,1.8,1
2019/9/28 3:55,1.1,2,1.1,2,1.9,16
2019/9/28 3:56,1.1,1,1.1,2,1.8,15
2019/9/28 3:57,1,1,1.1,2,1.6,16
2019/9/28 3:58,1,1,1,2,2.1,15
2019/9/28 3:59,1.1,1,1.1,2,1.6,16
2019/9/28 4:00,1.1,1,1.1,2,1.4,1
2019/9/28 4:01,1.1,1,1.1,2,1.4,1
2019/9/28 4:02,1,1,1.1,2,1,15
2019/9/28 4:03,1,1,1,2,0.6,1
2019/9/28 4:04,0.9,16,0.9,2,1,16
2019/9/28 4:05,0.7,1,0.8,2,0.1,13
2019/9/28 4:06,0.6,1,0.7,1,0.1,8
2019/9/28 4:07,0.5,1,0.6,1,0.1,8
2019/9/28 4:08,0.4,1,0.5,1,0.4,8
2019/9/28 4:09,0.4,3,0.4,1,0.8,4
2019/9/28 4:10,0.3,4,0.4,1,0.8,3
2019/9/28 4:11,0.3,4,0.3,1,0.6,3
2019/9/28 4:12,0.2,4,0.3,1,0.4,2
2019/9/28 4:13,0.2,4,0.3,1,0.4,2
2019/9/28 4:14,0.2,5,0.2,16,0.6,4
2019/9/28 4:15,0.2,4,0.2,1,0.6,4
2019/9/28 4:16,0.3,3,0.3,1,0.6,5
2019/9/28 4:17,0.3,3,0.3,1,0.6,3
2019/9/28 4:18,0.3,3,0.3,2,0.3,2
2019/9/28 4:19,0.3,3,0.3,3,0.6,1
2019/9/28 4:20,0.3,3,0.3,4,1,2
2019/9/28 4:21,0.4,3,0.4,3,1.5,2
2019/9/28 4:22,0.5,3,0.5,3,1.5,1
2019/9/28 4:23,0.6,2,0.6,2,1.6,1
2019/9/28 4:24,0.7,2,0.7,2,1.5,1
2019/9/28 4:25,0.8,2,0.8,2,1.5,16
2019/9/28 4:26,0.8,2,0.8,2,1.3,3
2019/9/28 4:27,0.8,1,0.8,2,1,16
2019/9/28 4:28,0.9,1,0.9,1,1.3,1
2019/9/28 4:29,0.9,1,1,1,1.1,2
2019/9/28 4:30,0.9,1,0.9,1,1,1
2019/9/28 4:31,0.9,1,0.9,1,0.9,16
2019/9/28 4:32,0.8,1,0.8,1,1.1,1
2019/9/28 4:33,0.8,1,0.8,1,1.3,16
2019/9/28 4:34,0.7,1,0.8,1,1,16
2019/9/28 4:35,0.7,1,0.7,1,1.1,16
2019/9/28 4:36,0.7,1,0.7,1,1.3,1
2019/9/28 4:37,0.7,1,0.7,1,1.4,1
2019/9/28 4:38,0.8,1,0.8,1,1.8,1
2019/9/28 4:39,0.8,1,0.8,1,1.8,1
2019/9/28 4:40,0.9,1,0.9,1,1.6,2
2019/9/28 4:41,1,1,1,1,1.8,1
2019/9/28 4:42,1,1,1,1,2.1,2
2019/9/28 4:43,1,1,1,1,1.4,1
2019/9/28 4:44,1,1,1,1,1.4,1
2019/9/28 4:45,1,1,1.1,1,1.5,1
2019/9/28 4:46,1,1,1,1,0.8,16
2019/9/28 4:47,1,1,1,1,1,1
2019/9/28 4:48,0.9,1,1,1,0.6,1
2019/9/28 4:49,0.9,1,0.9,1,1.5,3
2019/9/28 4:50,0.9,2,0.9,1,2.1,3
2019/9/28 4:51,0.9,2,0.9,1,1.6,3
2019/9/28 4:52,0.8,2,0.9,1,1.4,1
2019/9/28 4:53,0.8,2,0.9,1,1,2
2019/9/28 4:54,0.8,2,0.8,1,1,2
2019/9/28 4:55,0.8,2,0.8,1,1,2
2019/9/28 4:56,0.8,2,0.8,1,1.5,3
2019/9/28 4:57,0.9,2,0.9,1,1.6,3
2019/9/28 4:58,0.9,2,0.9,1,1.4,2
2019/9/28 4:59,1,2,1,2,1.4,3
2019/9/28 5:00,0.9,2,1,2,1.4,3
2019/9/28 5:01,0.9,2,0.9,2,1,2
2019/9/28 5:02,0.9,2,0.9,2,1.3,2
2019/9/28 5:03,0.9,2,0.9,2,1.4,2
2019/9/28 5:04,0.9,2,0.9,2,1.1,2
2019/9/28 5:05,1,2,1,2,1.5,2
2019/9/28 5:06,1,2,1,2,1.9,1
2019/9/28 5:07,1,2,1,2,1.5,1
2019/9/28 5:08,1,2,1,2,1.8,1
2019/9/28 5:09,1,2,1,2,1.5,2
2019/9/28 5:10,1,2,1,2,1.4,2
2019/9/28 5:11,1.1,2,1.1,2,2.2,3
2019/9/28 5:12,1.1,2,1.1,2,1.6,2
2019/9/28 5:13,1.1,2,1.1,2,1.8,3
2019/9/28 5:14,1.2,2,1.2,2,2,3
2019/9/28 5:15,1.2,2,1.2,2,1.8,3
2019/9/28 5:16,1.1,2,1.2,2,1.6,3
2019/9/28 5:17,1.1,2,1.1,2,1.8,2
2019/9/28 5:18,1.1,2,1.1,2,1.9,2
2019/9/28 5:19,1.2,2,1.2,2,2.1,3
2019/9/28 5:20,1.2,2,1.2,2,1.9,2
2019/9/28 5:21,1.2,2,1.2,2,2.5,3
2019/9/28 5:22,1.2,2,1.2,2,2,1
2019/9/28 5:23,1.3,2,1.3,2,2.2,2
2019/9/28 5:24,1.3,2,1.3,2,2.5,1
2019/9/28 5:25,1.4,2,1.4,2,2.7,2
2019/9/28 5:26,1.5,2,1.5,2,2,2
2019/9/28 5:27,1.5,2,1.5,2,2.9,2
2019/9/28 5:28,1.5,2,1.5,2,2,2
2019/9/28 5:29,1.5,2,1.5,2,2.4,2
2019/9/28 5:30,1.6,2,1.6,2,2.5,2
2019/9/28 5:31,1.5,2,1.6,2,1.9,2
2019/9/28 5:32,1.6,2,1.6,2,2.4,3
2019/9/28 5:33,1.6,2,1.6,2,1.9,3
2019/9/28 5:34,1.6,2,1.6,2,1.9,2
2019/9/28 5:35,1.5,2,1.6,2,2.6,3
2019/9/28 5:36,1.6,2,1.6,2,2.5,3
2019/9/28 5:37,1.5,2,1.6,2,2.1,2
2019/9/28 5:38,1.5,2,1.5,2,2.2,2
2019/9/28 5:39,1.5,2,1.5,2,2.4,2
2019/9/28 5:40,1.5,2,1.5,2,2.4,3
2019/9/28 5:41,1.5,2,1.5,2,1.5,1
2019/9/28 5:42,1.5,2,1.5,2,1.5,2
2019/9/28 5:43,1.5,2,1.5,2,2.5,3
2019/9/28 5:44,1.5,2,1.5,2,2.1,3
2019/9/28 5:45,1.4,2,1.5,2,1.5,3
2019/9/28 5:46,1.3,2,1.4,2,1.3,2
2019/9/28 5:47,1.3,2,1.3,2,1.5,3
2019/9/28 5:48,1.2,2,1.3,2,1.3,4
2019/9/28 5:49,1.1,2,1.2,2,1.1,2
2019/9/28 5:50,1.1,2,1.1,2,1.3,2
2019/9/28 5:51,1.1,2,1.1,2,1.8,2
2019/9/28 5:52,1.1,2,1.1,2,1.5,2
2019/9/28 5:53,1,2,1.1,2,1.4,1
2019/9/28 5:54,0.9,2,1,2,1,1
2019/9/28 5:55,0.8,2,0.9,2,1,2
2019/9/28 5:56,0.8,2,0.8,2,1,1
2019/9/28 5:57,0.8,2,0.8,2,0.6,16
2019/9/28 5:58,0.7,2,0.8,2,0.9,3
2019/9/28 5:59,0.8,2,0.8,2,1.4,4
2019/9/28 6:00,0.8,2,0.8,2,1,3
2019/9/28 6:01,0.7,3,0.8,2,0.9,3
2019/9/28 6:02,0.7,3,0.7,2,1.1,4
2019/9/28 6:03,0.7,3,0.7,2,1.3,4
2019/9/28 6:04,0.8,3,0.8,2,1.3,4
2019/9/28 6:05,0.8,3,0.8,2,1.8,4
2019/9/28 6:06,0.9,3,0.9,3,1.8,3
2019/9/28 6:07,1,3,1,3,2.1,3
2019/9/28 6:08,1.1,4,1.1,3,2.6,4
2019/9/28 6:09,1.2,3,1.2,4,2.4,3
2019/9/28 6:10,1.3,3,1.3,3,2.6,4
2019/9/28 6:11,1.4,3,1.4,3,2.2,3
2019/9/28 6:12,1.5,3,1.5,3,1.8,4
2019/9/28 6:13,1.5,3,1.5,3,1.8,2
2019/9/28 6:14,1.6,3,1.6,3,2.2,3
2019/9/28 6:15,1.6,3,1.6,3,2.1,3
2019/9/28 6:16,1.6,3,1.6,3,1.6,2
2019/9/28 6:17,1.5,3,1.6,3,2,3
2019/9/28 6:18,1.5,3,1.5,3,1.9,1
2019/9/28 6:19,1.4,3,1.5,3,2,4
2019/9/28 6:20,1.3,3,1.4,3,1.4,2
2019/9/28 6:21,1.3,3,1.3,3,1.6,2
2019/9/28 6:22,1.3,3,1.3,3,1.9,2
2019/9/28 6:23,1.3,3,1.3,3,2.2,2
2019/9/28 6:24,1.3,3,1.3,3,2.5,3
2019/9/28 6:25,1.2,3,1.3,3,2,2
2019/9/28 6:26,1.3,3,1.3,3,2.2,2
2019/9/28 6:27,1.3,2,1.3,3,2.2,3
2019/9/28 6:28,1.3,2,1.3,3,2.4,4
2019/9/28 6:29,1.4,2,1.4,3,2.5,3
2019/9/28 6:30,1.5,2,1.5,2,2,2
2019/9/28 6:31,1.5,3,1.5,2,2.4,4
2019/9/28 6:32,1.5,3,1.5,2,1.6,4
2019/9/28 6:33,1.5,3,1.6,3,1.9,3
2019/9/28 6:34,1.5,3,1.5,3,1.8,5
2019/9/28 6:35,1.4,3,1.5,3,1.4,4
2019/9/28 6:36,1.4,3,1.4,3,1.4,4
2019/9/28 6:37,1.2,4,1.3,3,0.5,5
2019/9/28 6:38,1.1,4,1.2,3,0.5,5
2019/9/28 6:39,1,4,1.1,3,1.6,5
2019/9/28 6:40,0.9,4,1,3,1.6,5
2019/9/28 6:41,0.8,4,0.9,3,0.9,4
2019/9/28 6:42,0.8,4,0.8,3,1.6,3
2019/9/28 6:43,0.8,4,0.8,3,1.5,3
2019/9/28 6:44,0.8,4,0.8,3,1.3,3
2019/9/28 6:45,0.8,4,0.8,3,2.4,4
2019/9/28 6:46,0.9,4,0.9,3,1.8,4
2019/9/28 6:47,1,3,1,4,1.4,2
2019/9/28 6:48,1.1,3,1.1,4,1.5,3
2019/9/28 6:49,1.1,3,1.1,3,1.6,16
2019/9/28 6:50,1.2,3,1.2,3,2.9,1
2019/9/28 6:51,1.3,3,1.3,3,2,3
2019/9/28 6:52,1.4,3,1.4,3,2.9,4
2019/9/28 6:53,1.5,3,1.5,3,3.2,3
2019/9/28 6:54,1.6,3,1.6,3,2.5,3
2019/9/28 6:55,1.6,3,1.6,3,2.9,3
2019/9/28 6:56,1.8,3,1.8,3,3.3,3
2019/9/28 6:57,2,3,2,3,3.8,3
2019/9/28 6:58,2.1,3,2.1,3,3.6,4
2019/9/28 6:59,2.3,3,2.3,3,3.7,3
2019/9/28 7:00,2.3,3,2.3,3,3.3,3
2019/9/28 7:01,2.4,3,2.4,3,2.6,3
2019/9/28 7:02,2.4,3,2.4,3,3.2,3
2019/9/28 7:03,2.4,3,2.4,3,3.2,3
2019/9/28 7:04,2.5,3,2.5,3,3.1,3
2019/9/28 7:05,2.5,3,2.5,3,3.1,3
2019/9/28 7:06,2.5,3,2.5,3,3.5,3
2019/9/28 7:07,2.4,3,2.5,3,3.9,3
2019/9/28 7:08,2.4,3,2.4,3,3.3,3
2019/9/28 7:09,2.4,3,2.4,3,4.4,3
2019/9/28 7:10,2.5,3,2.5,3,3.8,3
2019/9/28 7:11,2.5,3,2.5,3,3.8,3
2019/9/28 7:12,2.5,3,2.5,3,2.9,2
2019/9/28 7:13,2.5,3,2.5,3,2.7,3
2019/9/28 7:14,2.4,3,2.5,3,2.4,3
2019/9/28 7:15,2.4,3,2.4,3,3.2,3
2019/9/28 7:16,2.3,3,2.4,3,2.7,4
2019/9/28 7:17,2.2,3,2.3,3,3.1,3
2019/9/28 7:18,2.1,3,2.2,3,1.8,3
2019/9/28 7:19,2,3,2.1,3,2.1,3
2019/9/28 7:20,1.9,3,2,3,2.1,4
2019/9/28 7:21,1.8,3,1.9,3,2.9,3
2019/9/28 7:22,1.8,3,1.8,3,2.6,3
2019/9/28 7:23,1.8,3,1.8,3,2.2,4
2019/9/28 7:24,1.9,3,1.9,3,3,2
2019/9/28 7:25,1.9,3,1.9,3,3.1,3
2019/9/28 7:26,2,3,2,3,3.9,3
2019/9/28 7:27,2,3,2,3,3.3,4
2019/9/28 7:28,2,3,2,3,2.4,3
2019/9/28 7:29,2,3,2.1,3,2.5,3
2019/9/28 7:30,2,3,2,3,2.2,4
2019/9/28 7:31,2,3,2,3,2,3
2019/9/28 7:32,1.9,3,2,3,2.2,5
2019/9/28 7:33,1.9,4,1.9,3,2,3
2019/9/28 7:34,1.8,4,1.9,3,1.3,3
2019/9/28 7:35,1.7,4,1.7,3,1.5,3
2019/9/28 7:36,1.5,4,1.7,3,1.9,3
2019/9/28 7:37,1.5,4,1.5,3,2.9,3
2019/9/28 7:38,1.5,3,1.5,3,2.6,3
2019/9/28 7:39,1.5,3,1.5,3,2.4,3
2019/9/28 7:40,1.5,3,1.5,3,2.6,4
2019/9/28 7:41,1.6,3,1.6,3,3.1,4
2019/9/28 7:42,1.6,3,1.6,4,2.6,3
2019/9/28 7:43,1.7,3,1.7,4,3.5,3
2019/9/28 7:44,1.9,3,1.9,3,3.1,3
2019/9/28 7:45,2,3,2,3,2.9,3
2019/9/28 7:46,2,3,2,3,2.7,3
2019/9/28 7:47,2,3,2,3,2.7,3
2019/9/28 7:48,2,3,2,3,3.5,3
2019/9/28 7:49,2.1,3,2.1,3,3.9,3
2019/9/28 7:50,2.2,3,2.2,3,3.3,2
2019/9/28 7:51,2.1,3,2.2,3,3.1,1
2019/9/28 7:52,2.2,3,2.2,3,3.2,4
2019/9/28 7:53,2.1,3,2.2,3,3.2,3
2019/9/28 7:54,2.1,2,2.1,3,2.7,2
2019/9/28 7:55,2,2,2,3,3.1,3
2019/9/28 7:56,2.1,3,2.1,3,3,3
2019/9/28 7:57,2.1,3,2.1,3,2.4,3
2019/9/28 7:58,2.1,2,2.1,3,3,2
2019/9/28 7:59,2,2,2.1,3,2.6,2
2019/9/28 8:00,1.9,2,2,3,2.5,2
2019/9/28 8:01,1.8,2,1.9,3,2.4,2
2019/9/28 8:02,1.8,2,1.8,3,2.7,3
2019/9/28 8:03,1.7,2,1.7,3,2.2,3
2019/9/28 8:04,1.7,2,1.7,2,3.2,2
2019/9/28 8:05,1.7,2,1.7,2,3.5,3
2019/9/28 8:06,1.7,2,1.7,3,3.8,3
2019/9/28 8:07,1.8,2,1.8,3,3.5,3
2019/9/28 8:08,1.8,2,1.8,2,2.7,1
2019/9/28 8:09,1.9,2,1.9,2,4.1,3
2019/9/28 8:10,2,2,2,2,3.6,2
2019/9/28 8:11,2.1,2,2.1,2,3.1,3
2019/9/28 8:12,2.1,2,2.1,2,4.7,2
2019/9/28 8:13,2.3,2,2.3,2,3.7,3
2019/9/28 8:14,2.4,2,2.4,2,3.6,2
2019/9/28 8:15,2.4,3,2.4,2,3.8,5
2019/9/28 8:16,2.4,3,2.4,2,3.2,4
2019/9/28 8:17,2.4,3,2.4,2,2.6,4
2019/9/28 8:18,2.4,3,2.4,2,2.7,3
2019/9/28 8:19,2.3,3,2.4,2,1.8,3
2019/9/28 8:20,2.1,3,2.3,2,1.9,3
2019/9/28 8:21,2.1,3,2.1,2,2.4,3
2019/9/28 8:22,2,3,2.1,2,3.2,3
2019/9/28 8:23,1.9,3,2,2,3.3,3
2019/9/28 8:24,1.9,3,2,3,4.2,4
2019/9/28 8:25,1.9,3,1.9,3,2.5,3
2019/9/28 8:26,1.9,3,1.9,3,3.6,3
2019/9/28 8:27,2,3,2,3,3.5,3
2019/9/28 8:28,2,3,2,3,3.1,3
2019/9/28 8:29,2.1,3,2.1,3,2.7,4
2019/9/28 8:30,2.1,3,2.1,3,2.4,3
2019/9/28 8:31,2.1,3,2.1,3,2.5,3
2019/9/28 8:32,2.1,3,2.2,3,2.7,3
2019/9/28 8:33,2,3,2.1,3,1.8,1
2019/9/28 8:34,1.8,3,1.9,3,2,2
2019/9/28 8:35,1.8,3,1.8,3,3.1,4
2019/9/28 8:36,1.7,3,1.8,3,3.2,3
2019/9/28 8:37,1.6,3,1.7,3,2.6,3
2019/9/28 8:38,1.5,3,1.6,3,2.4,3
2019/9/28 8:39,1.6,3,1.6,3,3.5,3
2019/9/28 8:40,1.7,3,1.7,3,3.2,2
2019/9/28 8:41,1.8,3,1.8,3,4.1,3
2019/9/28 8:42,1.9,3,1.9,3,4.4,3
2019/9/28 8:43,2.1,3,2.1,3,3.6,4
2019/9/28 8:44,2.3,3,2.3,3,4.3,3
2019/9/28 8:45,2.4,3,2.4,3,4.2,3
2019/9/28 8:46,2.4,3,2.4,3,2.5,2
2019/9/28 8:47,2.4,3,2.4,3,3.1,3
2019/9/28 8:48,2.5,3,2.5,3,3.6,3
2019/9/28 8:49,2.4,3,2.5,3,3.2,4
2019/9/28 8:50,2.4,3,2.4,3,2,2
2019/9/28 8:51,2.3,3,2.4,3,2.9,5
2019/9/28 8:52,2.1,3,2.3,3,2.7,4
2019/9/28 8:53,1.9,3,2.1,3,2.1,3
2019/9/28 8:54,1.7,3,1.9,3,2.4,2
2019/9/28 8:55,1.6,3,1.7,3,3,3
2019/9/28 8:56,1.7,3,1.7,3,3,4
2019/9/28 8:57,1.7,3,1.7,3,3.5,2
2019/9/28 8:58,1.8,3,1.8,3,3.5,3
2019/9/28 8:59,1.8,3,1.8,3,2.7,3
2019/9/28 9:00,1.9,3,1.9,3,2.9,2
2019/9/28 9:01,1.9,3,1.9,3,3.3,2
2019/9/28 9:02,2,3,2,3,3.3,2
2019/9/28 9:03,2.2,3,2.2,3,4.1,3
2019/9/28 9:04,2.3,3,2.3,3,3.6,3
2019/9/28 9:05,2.3,3,2.3,3,3,2
2019/9/28 9:06,2.3,3,2.3,3,3.1,3
2019/9/28 9:07,2.3,3,2.3,3,3.3,3
2019/9/28 9:08,2.2,3,2.3,3,3.2,3
2019/9/28 9:09,2.3,3,2.3,3,3.2,3
2019/9/28 9:10,2.3,3,2.3,3,3.3,5
2019/9/28 9:11,2.3,3,2.3,3,3.2,4
2019/9/28 9:12,2.2,3,2.3,3,2.7,3
2019/9/28 9:13,2.2,3,2.3,3,3.7,2
2019/9/28 9:14,2.2,3,2.2,3,3.6,2
2019/9/28 9:15,2.2,3,2.3,3,3.6,3
2019/9/28 9:16,2.3,3,2.3,3,3.5,2
2019/9/28 9:17,2.3,3,2.3,3,2.5,3
2019/9/28 9:18,2.2,3,2.3,3,2.7,2
2019/9/28 9:19,2.1,3,2.2,3,2.2,3
2019/9/28 9:20,2,3,2.1,3,2,16
2019/9/28 9:21,2,3,2,3,3.1,3
2019/9/28 9:22,2,2,2,3,3.2,3
2019/9/28 9:23,2,3,2,3,3.3,3
2019/9/28 9:24,2,3,2,3,3,4
2019/9/28 9:25,2,3,2,3,3,4
2019/9/28 9:26,1.8,3,1.9,3,2.4,3
2019/9/28 11:29,1.6,2,1.6,2,2.4,2
2019/9/28 11:30,1.9,2,1.9,2,2.4,2
2019/9/28 11:31,1.5,2,1.8,2,1.8,2
2019/9/28 11:32,1.8,2,1.8,2,3.5,1
2019/9/28 11:33,1.8,2,1.8,2,2.9,1
2019/9/28 11:34,1.8,2,1.8,2,3.3,3
2019/9/28 11:35,1.8,2,1.8,2,3,3
2019/9/28 11:36,1.9,2,1.9,2,3.7,2
2019/9/28 11:37,2,2,2,2,3.9,3
2019/9/28 11:38,2,2,2,2,3.5,2
2019/9/28 11:39,2,2,2,2,3.2,2
2019/9/28 11:40,2.1,2,2.1,2,4.2,2
2019/9/28 11:41,2.2,2,2.2,2,3.8,1
2019/9/28 11:42,2.3,2,2.3,2,3.7,3
2019/9/28 11:43,2.2,2,2.3,2,3.2,3
2019/9/28 11:44,2.4,2,2.4,2,4.7,3
2019/9/28 11:45,2.5,2,2.5,2,4.4,3
2019/9/28 11:46,2.4,2,2.5,2,3.1,1
2019/9/28 11:47,2.2,2,2.4,2,1.5,3
2019/9/28 11:48,2.2,2,2.2,2,2.5,1
2019/9/28 11:49,2.1,2,2.2,2,2.5,2
2019/9/28 11:50,2.1,2,2.1,2,4.7,1
2019/9/28 11:51,2,2,2.1,2,2.9,16
2019/9/28 11:52,1.9,2,2,2,2.5,3
2019/9/28 11:53,2,2,2,2,3.3,1
2019/9/28 11:54,2,2,2,2,3.5,1
2019/9/28 11:55,1.9,2,2,2,3.6,2
2019/9/28 11:56,1.9,2,1.9,2,3.2,1
2019/9/28 11:57,2.1,2,2.1,2,3.3,2
2019/9/28 11:58,2.1,2,2.1,2,3,1
2019/9/28 11:59,2.1,2,2.1,2,2.5,1
2019/9/28 12:00,2,2,2.1,2,3,2
2019/9/28 12:01,2,2,2,2,2.4,3
2019/9/28 12:02,2,2,2,2,2.2,2
2019/9/28 12:03,2,2,2,2,2.7,2
2019/9/28 12:04,1.9,2,2,2,3.2,1
2019/9/28 12:05,1.8,1,1.9,2,3.5,16
2019/9/28 12:06,1.8,2,1.8,2,3,3
2019/9/28 12:07,1.7,2,1.7,2,3.2,2
2019/9/28 12:08,1.7,2,1.7,2,3.6,3
2019/9/28 12:09,1.7,2,1.7,2,2.5,2
2019/9/28 12:10,1.7,2,1.8,2,2.2,3
2019/9/28 12:11,1.7,2,1.7,2,2.1,2
2019/9/28 12:12,1.7,2,1.7,2,3.3,3
2019/9/28 12:13,1.7,2,1.7,2,3.8,3
2019/9/28 12:14,1.8,2,1.8,2,3.8,3
2019/9/28 12:15,2,2,2,2,5.2,3
2019/9/28 12:16,2.3,2,2.3,2,4.5,4
2019/9/28 12:17,2.3,2,2.3,2,2.7,3
2019/9/28 12:18,2.4,2,2.4,2,3.8,3
2019/9/28 12:19,2.7,3,2.7,3,5.6,3
2019/9/28 12:20,2.8,3,2.8,3,5,3
2019/9/28 12:21,3,3,3,3,4.9,2
2019/9/28 12:22,3.1,3,3.1,3,3.9,2
2019/9/28 12:23,3.2,3,3.2,3,5.2,3
2019/9/28 12:24,3.2,3,3.2,3,4.7,2
2019/9/28 12:25,3.1,3,3.2,3,3.9,2
2019/9/28 12:26,3,3,3,3,4.3,3
2019/9/28 12:27,3.1,3,3.1,3,4.9,4
2019/9/28 12:28,3,3,3.1,3,4.1,4
2019/9/28 12:29,2.9,3,3,3,3.7,3
2019/9/28 12:30,2.7,3,2.8,3,3.2,5
2019/9/28 12:31,2.7,3,2.8,3,3.3,3
2019/9/28 12:32,2.7,3,2.7,3,4.1,4
2019/9/28 12:33,2.7,3,2.7,3,6.1,4
2019/9/28 12:34,2.9,4,2.9,3,4.8,3
2019/9/28 12:35,3,4,3,3,5.7,5
2019/9/28 12:36,3.1,4,3.1,3,5,5
2019/9/28 12:37,3,4,3.1,3,4.7,5
2019/9/28 12:38,3.1,4,3.1,4,5.4,4
2019/9/28 12:39,3.2,4,3.2,4,5.7,3
2019/9/28 12:40,3.4,4,3.4,4,6.3,5
2019/9/28 12:41,3.6,4,3.6,4,6.2,5
2019/9/28 12:42,3.8,4,3.8,4,5.8,4
2019/9/28 12:43,3.7,4,3.8,4,5.5,3
2019/9/28 12:44,3.8,4,3.8,4,6.9,3
2019/9/28 12:45,3.9,4,3.9,4,7.6,3
2019/9/28 12:46,3.9,4,3.9,4,5.4,4
2019/9/28 12:47,4,4,4,4,6,3
2019/9/28 12:48,4.1,4,4.1,4,6.2,6
2019/9/28 12:49,4,4,4.1,4,4.1,5
2019/9/28 12:50,4,4,4,4,6.7,4
2019/9/28 12:51,3.9,4,3.9,4,5,4
2019/9/28 12:52,3.8,4,3.9,4,4.9,4
2019/9/28 12:53,3.9,4,3.9,4,6.1,3
2019/9/28 12:54,3.6,4,3.9,4,4.4,3
2019/9/28 12:55,3.4,4,3.6,4,4.3,5
2019/9/28 12:56,3.2,4,3.4,4,3.7,4
2019/9/28 12:57,3.3,4,3.3,4,6.2,4
2019/9/28 12:58,3.3,4,3.3,4,5.7,4
2019/9/28 12:59,3.4,4,3.4,4,5.4,4
2019/9/28 13:00,3.2,4,3.4,4,3.9,4
2019/9/28 13:01,3.2,4,3.2,4,5.1,4
2019/9/28 13:02,3.2,4,3.2,4,5.6,4
2019/9/28 13:03,3.3,4,3.3,4,6.5,2
2019/9/28 13:04,3.5,4,3.5,4,5.1,4
2019/9/28 13:05,3.4,4,3.5,4,3.7,4
2019/9/28 13:06,3.4,4,3.4,4,2.9,3
2019/9/28 13:07,3.3,4,3.4,4,4.9,4
2019/9/28 13:08,3.4,4,3.4,4,7.1,5
2019/9/28 13:09,3.4,4,3.4,4,5.5,4
2019/9/28 13:10,3.3,4,3.4,4,4.2,5
2019/9/28 13:11,3.3,4,3.4,4,5.4,4
2019/9/28 13:12,3.2,4,3.3,4,4.4,3
2019/9/28 13:13,3.2,4,3.2,4,6.5,3
2019/9/28 13:14,3.2,4,3.2,4,5.5,4
2019/9/28 13:15,3.3,4,3.3,4,5.4,3
2019/9/28 13:16,3.6,4,3.6,4,6.4,4
2019/9/28 13:17,3.7,4,3.8,4,6.2,4
2019/9/28 13:18,3.5,4,3.7,4,3.7,5
2019/9/28 13:19,3.4,4,3.5,4,3,6
2019/9/28 13:20,3.5,4,3.5,4,5.4,5
2019/9/28 13:21,3.4,4,3.5,4,4.3,5
2019/9/28 13:22,3.4,4,3.4,4,3,2
2019/9/28 13:23,3.1,4,3.4,4,5.1,3
2019/9/28 13:24,3.1,4,3.2,4,5.7,4
2019/9/28 13:25,3.1,5,3.2,4,5.1,5
2019/9/28 13:26,2.9,5,3.1,4,4.2,5
2019/9/28 13:27,2.8,5,2.9,4,4.1,7
2019/9/28 13:28,2.7,5,2.8,4,4.2,5
2019/9/28 13:29,2.6,5,2.7,4,2.1,6
2019/9/28 13:30,2.6,5,2.6,4,5,5
2019/9/28 13:31,2.8,5,2.8,4,6.9,6
2019/9/28 13:32,3,5,3,4,6.3,6
2019/9/28 13:33,3,5,3.1,4,3.9,7
2019/9/28 13:34,3,6,3,5,5.1,6
2019/9/28 13:35,3,6,3,5,5,6
2019/9/28 13:36,3.1,6,3.1,5,5.1,5
2019/9/28 13:37,3,6,3.1,5,3.7,7
2019/9/28 13:38,3,6,3,5,3.1,8
2019/9/28 13:39,3,6,3,5,3,9
2019/9/28 13:40,3,7,3,5,4.4,8
2019/9/28 13:41,2.7,7,3,5,4.3,7
2019/9/28 13:42,2.7,7,2.7,5,7,9
2019/9/28 13:43,2.6,8,2.7,6,3.8,7
2019/9/28 13:44,2.5,8,2.6,6,4.4,6
2019/9/28 13:45,2.5,8,2.5,6,6,8
2019/9/28 13:46,2.4,8,2.5,6,5.8,7
2019/9/28 13:47,2.5,8,2.5,6,5,8
2019/9/28 13:48,2.6,8,2.6,6,5,6
2019/9/28 13:49,2.8,8,2.8,6,3.9,7
2019/9/28 13:50,2.7,7,2.8,7,3.3,5